Tracking 28902 objects as of 19-May-2024
HD Live streaming from Space Station
objects crossing your sky now

SL-3 R/B

Track SL-3 R/B now!
10-day predictions


NORAD ID: 12586
Int'l Code: 1981-065B
Perigee: 502.0 km
Apogee: 525.1 km
Inclination: 97.7 °
Period: 94.7 minutes
Semi major axis: 6884 km
RCS: 7.238 m2 (large)
Launch date: July 10, 1981
Source: Commonwealth of Independent States (former USSR) (CIS)
Launch site: TYURATAM MISSILE AND SPACE COMPLEX (TTMTR)

Note: This is a ROCKET BODY
Your satellite tracking list
Your tracking list is empty




NASA's NSSDC Master Catalog

Two Line Element Set (TLE):
1 12586U 81065B   24139.82946865  .00012784  00000-0  59740-3 0  9999
2 12586  97.6944 153.0506 0016722 152.8723 207.3388 15.19810735338431
Source of the keplerian elements: AFSPC